Time,TemperatureF,DewpointF,PressureIn,WindDirection,WindDirectionDegrees,WindSpeedMPH,WindSpeedGustMPH,Humidity,HourlyPrecipIn,Conditions,Clouds,dailyrainin,SoftwareType,DateUTC
2013-11-16 00:05:00,38.1,27.3,29.95,ENE,67,0.0,0.0,65,0.00,,,-99.99,open2300 version1.11,2013-11-16 05:05:00,
2013-11-16 00:10:00,38.1,27.3,29.95,ENE,67,0.0,0.0,65,0.00,,,-99.99,open2300 version1.11,2013-11-16 05:10:00,
2013-11-16 00:15:00,38.1,27.7,29.95,East,90,0.0,0.0,66,0.00,,,-99.99,open2300 version1.11,2013-11-16 05:15:00,
2013-11-16 00:20:00,38.1,27.7,29.96,East,90,0.0,0.0,66,0.00,,,-99.99,open2300 version1.11,2013-11-16 05:20:00,
2013-11-16 00:25:00,38.1,27.7,29.96,SSE,157,0.0,0.0,66,0.00,,,-99.99,open2300 version1.11,2013-11-16 05:25:00,
2013-11-16 00:30:00,38.1,27.7,29.96,SSE,157,0.0,0.0,66,0.00,,,-99.99,open2300 version1.11,2013-11-16 05:30:00,
2013-11-16 00:35:00,37.9,27.6,29.95,SE,135,0.0,0.0,66,0.00,,,-99.99,open2300 version1.11,2013-11-16 05:35:00,
2013-11-16 00:40:00,37.9,27.6,29.95,SE,135,0.0,0.0,66,0.00,,,-99.99,open2300 version1.11,2013-11-16 05:40:00,
2013-11-16 00:45:00,37.9,27.6,29.96,SSE,157,0.1,0.9,66,0.00,,,-99.99,open2300 version1.11,2013-11-16 05:45:00,
2013-11-16 00:50:00,37.9,27.6,29.96,SE,135,0.0,0.9,66,0.00,,,-99.99,open2300 version1.11,2013-11-16 05:50:00,
2013-11-16 00:55:00,37.8,27.4,29.95,SSE,157,0.0,0.0,66,0.00,,,-99.99,open2300 version1.11,2013-11-16 05:55:00,
2013-11-16 01:00:00,37.6,27.6,29.96,ESE,112,0.0,0.0,67,0.00,,,-99.99,open2300 version1.11,2013-11-16 06:00:00,
2013-11-16 01:05:00,37.4,27.4,29.96,ESE,112,0.0,0.0,67,0.00,,,-99.99,open2300 version1.11,2013-11-16 06:05:00,
2013-11-16 01:10:00,37.2,27.3,29.95,ESE,112,0.0,0.0,67,0.00,,,-99.99,open2300 version1.11,2013-11-16 06:10:00,
2013-11-16 01:15:00,37.2,27.3,29.95,SE,135,0.1,2.0,67,0.00,,,-99.99,open2300 version1.11,2013-11-16 06:15:00,
2013-11-16 01:20:00,37.2,27.3,29.95,SE,135,0.0,0.0,67,0.00,,,-99.99,open2300 version1.11,2013-11-16 06:20:00,
2013-11-16 01:25:00,37.2,27.6,29.95,South,180,0.1,3.6,68,0.00,,,-99.99,open2300 version1.11,2013-11-16 06:25:00,
2013-11-16 01:30:00,37.2,27.6,29.95,South,180,0.0,0.0,68,0.00,,,-99.99,open2300 version1.11,2013-11-16 06:30:00,
2013-11-16 01:35:00,37.2,27.6,29.95,ESE,112,0.1,3.1,68,0.00,,,-99.99,open2300 version1.11,2013-11-16 06:35:00,
2013-11-16 01:40:00,37.2,27.6,29.95,SE,135,0.1,3.8,68,0.00,,,-99.99,open2300 version1.11,2013-11-16 06:40:00,
2013-11-16 01:45:00,37.2,27.6,29.95,SE,135,0.1,1.8,68,0.00,,,-99.99,open2300 version1.11,2013-11-16 06:45:00,
2013-11-16 01:50:00,37.4,27.8,29.95,SSW,202,0.0,0.0,68,0.00,,,-99.99,open2300 version1.11,2013-11-16 06:50:00,
2013-11-16 01:55:00,37.6,28.0,29.95,SSW,202,0.0,0.0,68,0.00,,,-99.99,open2300 version1.11,2013-11-16 06:55:00,
2013-11-16 02:05:00,37.8,28.1,29.95,East,90,0.0,0.0,68,0.00,,,-99.99,open2300 version1.11,2013-11-16 07:05:00,
2013-11-16 02:10:00,37.8,28.1,29.95,SE,135,0.1,1.8,68,0.00,,,-99.99,open2300 version1.11,2013-11-16 07:10:00,
2013-11-16 02:15:00,37.8,28.1,29.95,East,90,0.0,0.0,68,0.00,,,-99.99,open2300 version1.11,2013-11-16 07:15:00,
2013-11-16 02:20:00,37.8,28.1,29.95,ESE,112,0.0,0.0,68,0.00,,,-99.99,open2300 version1.11,2013-11-16 07:20:00,
2013-11-16 02:25:00,37.8,28.1,29.96,ESE,112,0.0,0.0,68,0.00,,,-99.99,open2300 version1.11,2013-11-16 07:25:00,
2013-11-16 02:30:00,37.6,28.0,29.96,ESE,112,0.0,0.0,68,0.00,,,-99.99,open2300 version1.11,2013-11-16 07:30:00,
2013-11-16 02:35:00,37.6,28.0,29.95,ESE,112,0.0,1.3,68,0.00,,,-99.99,open2300 version1.11,2013-11-16 07:35:00,
2013-11-16 02:40:00,37.2,27.6,29.95,SE,135,0.0,0.0,68,0.00,,,-99.99,open2300 version1.11,2013-11-16 07:40:00,
2013-11-16 02:45:00,37.2,27.6,29.95,SE,135,0.0,0.0,68,0.00,,,-99.99,open2300 version1.11,2013-11-16 07:45:00,
2013-11-16 02:50:00,37.2,27.6,29.95,SSE,157,0.0,0.0,68,0.00,,,-99.99,open2300 version1.11,2013-11-16 07:50:00,
2013-11-16 02:55:00,37.0,27.8,29.95,ESE,112,0.0,0.0,69,0.00,,,-99.99,open2300 version1.11,2013-11-16 07:55:00,
2013-11-16 03:05:00,36.7,27.5,29.96,SE,135,0.0,0.0,69,0.00,,,-99.99,open2300 version1.11,2013-11-16 08:05:00,
2013-11-16 03:10:00,36.5,27.3,29.96,SE,135,0.0,0.9,69,0.00,,,-99.99,open2300 version1.11,2013-11-16 08:10:00,
2013-11-16 03:15:00,36.5,27.3,29.96,ESE,123,0.1,1.6,69,0.00,,,-99.99,open2300 version1.11,2013-11-16 08:15:00,
2013-11-16 03:25:00,36.3,27.5,29.96,East,90,0.1,1.1,70,0.00,,,-99.99,open2300 version1.11,2013-11-16 08:25:00,
2013-11-16 03:35:00,36.1,27.3,29.95,East,101,0.1,1.8,70,0.00,,,-99.99,open2300 version1.11,2013-11-16 08:35:00,
2013-11-16 03:40:00,36.0,27.1,29.95,East,90,0.1,2.0,70,0.00,,,-99.99,open2300 version1.11,2013-11-16 08:40:00,
2013-11-16 03:45:00,35.8,27.0,29.95,East,90,0.0,0.0,70,0.00,,,-99.99,open2300 version1.11,2013-11-16 08:45:00,
2013-11-16 03:50:00,35.8,27.3,29.95,ESE,112,0.0,0.0,71,0.00,,,-99.99,open2300 version1.11,2013-11-16 08:50:00,
2013-11-16 03:55:00,35.8,27.3,29.95,ENE,67,0.0,0.7,71,0.00,,,-99.99,open2300 version1.11,2013-11-16 08:55:00,
2013-11-16 04:00:00,35.6,27.1,29.95,East,90,0.0,0.0,71,0.00,,,-99.99,open2300 version1.11,2013-11-16 09:00:00,
2013-11-16 04:10:00,35.4,26.9,29.95,East,90,0.0,0.0,71,0.00,,,-99.99,open2300 version1.11,2013-11-16 09:10:00,
2013-11-16 04:20:00,35.2,27.1,29.95,ENE,67,0.0,0.0,72,0.00,,,-99.99,open2300 version1.11,2013-11-16 09:20:00,
2013-11-16 04:25:00,35.2,27.1,29.96,ENE,67,0.0,0.0,72,0.00,,,-99.99,open2300 version1.11,2013-11-16 09:25:00,
2013-11-16 04:30:00,34.9,27.0,29.96,ENE,67,0.0,0.0,73,0.00,,,-99.99,open2300 version1.11,2013-11-16 09:30:00,
2013-11-16 04:35:00,34.9,27.0,29.97,ENE,67,0.0,0.0,73,0.00,,,-99.99,open2300 version1.11,2013-11-16 09:35:00,
2013-11-16 04:40:00,34.9,27.0,29.97,ENE,67,0.0,0.0,73,0.00,,,-99.99,open2300 version1.11,2013-11-16 09:40:00,
2013-11-16 04:45:00,34.7,26.9,29.98,ENE,67,0.0,0.0,73,0.00,,,-99.99,open2300 version1.11,2013-11-16 09:45:00,
2013-11-16 04:50:00,34.5,26.7,29.98,ENE,67,0.0,0.0,73,0.00,,,-99.99,open2300 version1.11,2013-11-16 09:50:00,
2013-11-16 04:55:00,34.3,26.5,29.98,ENE,67,0.0,0.0,73,0.00,,,-99.99,open2300 version1.11,2013-11-16 09:55:00,
2013-11-16 05:00:00,34.3,26.5,29.98,ENE,67,0.0,0.0,73,0.00,,,-99.99,open2300 version1.11,2013-11-16 10:00:00,
2013-11-16 05:05:00,34.3,26.8,29.98,ENE,67,0.0,0.0,74,0.00,,,-99.99,open2300 version1.11,2013-11-16 10:05:00,
2013-11-16 05:10:00,34.3,26.8,29.98,ENE,67,0.0,0.0,74,0.00,,,-99.99,open2300 version1.11,2013-11-16 10:10:00,
2013-11-16 05:20:00,34.3,27.1,29.98,ENE,67,0.0,0.0,75,0.00,,,-99.99,open2300 version1.11,2013-11-16 10:20:00,
2013-11-16 05:25:00,34.3,27.1,29.98,ENE,67,0.0,0.0,75,0.00,,,-99.99,open2300 version1.11,2013-11-16 10:25:00,
2013-11-16 05:30:00,34.3,27.1,29.98,SSE,157,0.0,0.0,75,0.00,,,-99.99,open2300 version1.11,2013-11-16 10:30:00,
2013-11-16 05:40:00,34.2,27.0,29.98,ESE,121,0.3,3.4,75,0.00,,,-99.99,open2300 version1.11,2013-11-16 10:40:00,
2013-11-16 05:50:00,34.0,27.1,29.98,ESE,112,0.0,0.0,76,0.00,,,-99.99,open2300 version1.11,2013-11-16 10:50:00,
2013-11-16 05:55:00,34.2,27.6,29.98,ESE,112,0.0,0.0,77,0.00,,,-99.99,open2300 version1.11,2013-11-16 10:55:00,
2013-11-16 06:00:00,34.3,27.8,29.98,ESE,112,0.0,0.0,77,0.00,,,-99.99,open2300 version1.11,2013-11-16 11:00:00,
2013-11-16 06:05:00,34.3,27.8,29.98,East,90,0.0,0.0,77,0.00,,,-99.99,open2300 version1.11,2013-11-16 11:05:00,
2013-11-16 06:10:00,34.3,27.8,29.98,ENE,67,0.0,0.9,77,0.00,,,-99.99,open2300 version1.11,2013-11-16 11:10:00,
2013-11-16 06:15:00,34.3,27.8,29.98,ENE,67,0.0,0.0,77,0.00,,,-99.99,open2300 version1.11,2013-11-16 11:15:00,
2013-11-16 06:20:00,34.3,27.8,29.98,ENE,67,0.0,0.0,77,0.00,,,-99.99,open2300 version1.11,2013-11-16 11:20:00,
2013-11-16 06:25:00,34.3,27.8,29.98,ESE,112,0.1,2.7,77,0.00,,,-99.99,open2300 version1.11,2013-11-16 11:25:00,
2013-11-16 06:35:00,34.2,27.6,29.98,SE,135,0.0,0.0,77,0.00,,,-99.99,open2300 version1.11,2013-11-16 11:35:00,
2013-11-16 06:45:00,34.0,27.8,29.98,SE,135,0.0,0.0,78,0.00,,,-99.99,open2300 version1.11,2013-11-16 11:45:00,
2013-11-16 06:50:00,34.2,27.9,29.98,SE,135,0.0,0.0,78,0.00,,,-99.99,open2300 version1.11,2013-11-16 11:50:00,
2013-11-16 07:00:00,34.2,27.9,29.98,SE,135,0.0,0.0,78,0.00,,,-99.99,open2300 version1.11,2013-11-16 12:00:00,
2013-11-16 07:05:00,34.2,27.9,29.98,SE,135,0.0,0.0,78,0.00,,,-99.99,open2300 version1.11,2013-11-16 12:05:00,
2013-11-16 07:10:00,34.2,28.3,29.98,SE,135,0.0,0.0,79,0.00,,,-99.99,open2300 version1.11,2013-11-16 12:10:00,
2013-11-16 07:15:00,34.2,28.3,29.98,SE,135,0.0,0.0,79,0.00,,,-99.99,open2300 version1.11,2013-11-16 12:15:00,
2013-11-16 07:25:00,34.0,28.1,29.99,SE,135,0.0,0.0,79,0.00,,,-99.99,open2300 version1.11,2013-11-16 12:25:00,
2013-11-16 07:30:00,34.0,28.1,29.98,SE,135,0.0,0.0,79,0.00,,,-99.99,open2300 version1.11,2013-11-16 12:30:00,
2013-11-16 07:35:00,34.2,28.3,29.99,South,180,0.0,0.0,79,0.00,,,-99.99,open2300 version1.11,2013-11-16 12:35:00,
2013-11-16 07:45:00,34.5,28.9,29.99,SSE,157,0.0,0.0,80,0.00,,,-99.99,open2300 version1.11,2013-11-16 12:45:00,
2013-11-16 07:50:00,34.9,29.3,29.99,ESE,112,0.0,0.0,80,0.00,,,-99.99,open2300 version1.11,2013-11-16 12:50:00,
2013-11-16 07:55:00,35.2,29.7,29.98,ENE,67,0.0,0.0,80,0.00,,,-99.99,open2300 version1.11,2013-11-16 12:55:00,
2013-11-16 08:00:00,35.8,30.5,29.98,ESE,115,0.3,1.6,81,0.00,,,-99.99,open2300 version1.11,2013-11-16 13:00:00,
2013-11-16 08:05:00,36.1,30.9,29.98,SE,146,0.2,2.0,81,0.00,,,-99.99,open2300 version1.11,2013-11-16 13:05:00,
2013-11-16 08:10:00,36.5,31.2,29.98,SE,135,0.1,1.3,81,0.00,,,-99.99,open2300 version1.11,2013-11-16 13:10:00,
2013-11-16 08:15:00,36.7,31.4,29.98,SE,135,0.1,0.7,81,0.00,,,-99.99,open2300 version1.11,2013-11-16 13:15:00,
2013-11-16 08:20:00,37.0,31.8,29.98,SE,126,0.1,2.0,81,0.00,,,-99.99,open2300 version1.11,2013-11-16 13:20:00,
2013-11-16 08:30:00,37.8,32.5,29.99,SSE,150,0.1,1.1,81,0.00,,,-99.99,open2300 version1.11,2013-11-16 13:30:00,
2013-11-16 08:35:00,37.9,32.6,29.98,SE,135,0.0,0.0,81,0.00,,,-99.99,open2300 version1.11,2013-11-16 13:35:00,
2013-11-16 08:40:00,38.1,32.5,29.98,SE,135,0.0,1.3,80,0.00,,,-99.99,open2300 version1.11,2013-11-16 13:40:00,
2013-11-16 08:45:00,38.5,32.9,29.98,ESE,112,0.0,0.0,80,0.00,,,-99.99,open2300 version1.11,2013-11-16 13:45:00,
2013-11-16 08:50:00,38.8,33.5,29.98,ESE,114,0.5,3.4,81,0.00,,,-99.99,open2300 version1.11,2013-11-16 13:50:00,
2013-11-16 08:55:00,39.0,33.7,29.98,ESE,123,0.5,2.0,81,0.00,,,-99.99,open2300 version1.11,2013-11-16 13:55:00,
2013-11-16 09:00:00,39.2,33.9,29.98,ESE,117,0.4,4.9,81,0.00,,,-99.99,open2300 version1.11,2013-11-16 14:00:00,
2013-11-16 09:05:00,39.6,34.2,29.98,SE,146,0.2,1.6,81,0.00,,,-99.99,open2300 version1.11,2013-11-16 14:05:00,
2013-11-16 09:10:00,39.7,34.4,29.98,ESE,120,0.8,3.8,81,0.00,,,-99.99,open2300 version1.11,2013-11-16 14:10:00,
2013-11-16 09:20:00,40.3,34.9,29.98,SE,140,1.3,4.9,81,0.00,,,-99.99,open2300 version1.11,2013-11-16 14:20:00,
2013-11-16 09:25:00,40.5,35.0,29.98,SE,128,0.3,2.2,81,0.00,,,-99.99,open2300 version1.11,2013-11-16 14:25:00,
2013-11-16 09:30:00,40.6,35.2,29.98,SE,132,0.5,5.8,81,0.00,,,-99.99,open2300 version1.11,2013-11-16 14:30:00,
2013-11-16 09:35:00,40.8,35.4,29.98,ESE,119,1.5,5.4,81,0.00,,,-99.99,open2300 version1.11,2013-11-16 14:35:00,
2013-11-16 09:40:00,41.2,35.2,29.98,SE,140,1.7,6.0,80,0.00,,,-99.99,open2300 version1.11,2013-11-16 14:40:00,
2013-11-16 09:45:00,41.2,35.4,29.97,SE,139,1.3,4.9,80,0.00,,,-99.99,open2300 version1.11,2013-11-16 14:45:00,
2013-11-16 09:55:00,41.5,35.8,29.96,SE,139,0.6,5.6,80,0.00,,,-99.99,open2300 version1.11,2013-11-16 14:55:00,
2013-11-16 10:00:00,41.7,36.3,29.96,SE,146,0.1,1.1,81,0.00,,,-99.99,open2300 version1.11,2013-11-16 15:00:00,
2013-11-16 10:05:00,42.1,36.6,29.96,SSE,148,1.3,6.0,81,0.00,,,-99.99,open2300 version1.11,2013-11-16 15:05:00,
2013-11-16 10:10:00,42.4,37.0,29.96,SE,130,0.9,6.0,81,0.00,,,-99.99,open2300 version1.11,2013-11-16 15:10:00,
2013-11-16 10:15:00,42.6,37.2,29.95,SE,138,1.9,5.8,81,0.00,,,-99.99,open2300 version1.11,2013-11-16 15:15:00,
2013-11-16 10:25:00,43.2,37.7,29.96,ESE,114,0.5,3.6,81,0.00,,,-99.99,open2300 version1.11,2013-11-16 15:25:00,
2013-11-16 10:35:00,43.5,37.8,29.97,SE,144,1.2,6.9,80,0.00,,,-99.99,open2300 version1.11,2013-11-16 15:35:00,
2013-11-16 10:40:00,43.9,38.1,29.96,ESE,121,0.8,3.8,80,0.00,,,-99.99,open2300 version1.11,2013-11-16 15:40:00,
2013-11-16 10:45:00,44.2,38.5,29.95,ESE,116,0.7,3.8,80,0.00,,,-99.99,open2300 version1.11,2013-11-16 15:45:00,
2013-11-16 10:50:00,44.2,38.5,29.95,SE,128,1.2,6.7,80,0.00,,,-99.99,open2300 version1.11,2013-11-16 15:50:00,
2013-11-16 10:55:00,44.4,38.7,29.95,SE,146,1.2,6.9,80,0.00,,,-99.99,open2300 version1.11,2013-11-16 15:55:00,
2013-11-16 11:00:00,44.6,38.8,29.96,SSE,159,1.4,7.2,80,0.00,,,-99.99,open2300 version1.11,2013-11-16 16:00:00,
2013-11-16 11:05:00,44.8,39.0,29.96,SE,140,1.7,9.6,80,0.00,,,-99.99,open2300 version1.11,2013-11-16 16:05:00,
2013-11-16 11:10:00,45.0,39.2,29.96,ESE,122,0.7,5.4,80,0.00,,,-99.99,open2300 version1.11,2013-11-16 16:10:00,
2013-11-16 11:20:00,45.1,39.0,29.95,SE,137,1.7,4.7,79,0.00,,,-99.99,open2300 version1.11,2013-11-16 16:20:00,
2013-11-16 11:25:00,45.1,39.0,29.95,SE,127,0.7,4.2,79,0.00,,,-99.99,open2300 version1.11,2013-11-16 16:25:00,
2013-11-16 11:30:00,45.3,39.2,29.94,SE,139,2.3,8.1,79,0.00,,,-99.99,open2300 version1.11,2013-11-16 16:30:00,
2013-11-16 11:40:00,45.5,39.4,29.94,SE,139,1.6,6.9,79,0.00,,,-99.99,open2300 version1.11,2013-11-16 16:40:00,
2013-11-16 11:45:00,45.7,39.6,29.93,SE,137,3.1,8.5,79,0.00,,,-99.99,open2300 version1.11,2013-11-16 16:45:00,
2013-11-16 11:50:00,45.7,39.6,29.92,SE,133,2.6,9.4,79,0.00,,,-99.99,open2300 version1.11,2013-11-16 16:50:00,
2013-11-16 11:55:00,46.0,39.9,29.92,East,100,0.6,3.8,79,0.00,,,-99.99,open2300 version1.11,2013-11-16 16:55:00,
2013-11-16 12:00:00,46.2,40.1,29.93,SSE,148,1.0,5.4,79,0.00,,,-99.99,open2300 version1.11,2013-11-16 17:00:00,
2013-11-16 12:05:00,46.2,40.1,29.92,SE,146,1.8,6.7,79,0.00,,,-99.99,open2300 version1.11,2013-11-16 17:05:00,
2013-11-16 12:10:00,46.6,40.5,29.92,SE,143,1.7,10.5,79,0.00,,,-99.99,open2300 version1.11,2013-11-16 17:10:00,
2013-11-16 12:15:00,46.6,40.5,29.92,ESE,123,1.6,5.6,79,0.00,,,-99.99,open2300 version1.11,2013-11-16 17:15:00,
2013-11-16 12:20:00,46.9,40.8,29.91,SE,127,1.8,9.2,79,0.00,,,-99.99,open2300 version1.11,2013-11-16 17:20:00,
2013-11-16 12:30:00,47.5,41.3,29.91,SE,138,0.4,4.5,79,0.00,,,-99.99,open2300 version1.11,2013-11-16 17:30:00,
2013-11-16 12:35:00,47.8,41.6,29.91,SE,125,0.4,2.9,79,0.00,,,-99.99,open2300 version1.11,2013-11-16 17:35:00,
2013-11-16 12:45:00,48.6,42.3,29.90,ESE,123,1.9,13.7,79,0.00,,,-99.99,open2300 version1.11,2013-11-16 17:45:00,
2013-11-16 12:50:00,48.9,42.6,29.89,SE,133,3.2,10.1,79,0.00,,,-99.99,open2300 version1.11,2013-11-16 17:50:00,
2013-11-16 12:55:00,49.3,43.0,29.89,SE,135,1.7,9.4,79,0.00,,,-99.99,open2300 version1.11,2013-11-16 17:55:00,
2013-11-16 13:00:00,49.6,43.0,29.88,SE,125,2.6,11.0,78,0.00,,,-99.99,open2300 version1.11,2013-11-16 18:00:00,
2013-11-16 13:05:00,49.8,43.2,29.88,SSE,153,1.1,4.9,78,0.00,,,-99.99,open2300 version1.11,2013-11-16 18:05:00,
2013-11-16 13:10:00,50.2,43.6,29.88,SE,135,3.0,12.1,78,0.00,,,-99.99,open2300 version1.11,2013-11-16 18:10:00,
2013-11-16 13:15:00,50.4,43.7,29.88,ESE,109,0.5,3.4,78,0.00,,,-99.99,open2300 version1.11,2013-11-16 18:15:00,
2013-11-16 13:20:00,50.4,43.7,29.87,ESE,105,1.0,6.5,78,0.00,,,-99.99,open2300 version1.11,2013-11-16 18:20:00,
2013-11-16 13:30:00,50.9,43.9,29.87,SE,136,3.6,11.0,77,0.00,,,-99.99,open2300 version1.11,2013-11-16 18:30:00,
2013-11-16 13:40:00,51.3,44.3,29.87,ESE,114,1.2,6.0,77,0.00,,,-99.99,open2300 version1.11,2013-11-16 18:40:00,
2013-11-16 13:45:00,51.4,44.5,29.87,ESE,121,2.1,6.7,77,0.00,,,-99.99,open2300 version1.11,2013-11-16 18:45:00,
2013-11-16 13:55:00,51.6,44.3,29.86,SE,136,1.8,4.9,76,0.00,,,-99.99,open2300 version1.11,2013-11-16 18:55:00,
2013-11-16 14:00:00,51.8,44.5,29.85,ESE,118,1.2,5.1,76,0.00,,,-99.99,open2300 version1.11,2013-11-16 19:00:00,
2013-11-16 14:05:00,52.0,44.6,29.85,SE,146,0.9,4.9,76,0.00,,,-99.99,open2300 version1.11,2013-11-16 19:05:00,
2013-11-16 14:15:00,52.3,44.6,29.85,SE,136,2.8,10.7,75,0.00,,,-99.99,open2300 version1.11,2013-11-16 19:15:00,
2013-11-16 14:20:00,52.3,44.6,29.84,SE,144,2.6,10.1,75,0.00,,,-99.99,open2300 version1.11,2013-11-16 19:20:00,
2013-11-16 14:25:00,52.3,44.6,29.84,ESE,122,1.1,3.4,75,0.00,,,-99.99,open2300 version1.11,2013-11-16 19:25:00,
2013-11-16 14:35:00,52.9,45.2,29.84,ESE,109,1.3,7.4,75,0.00,,,-99.99,open2300 version1.11,2013-11-16 19:35:00,
2013-11-16 14:40:00,52.9,45.2,29.84,SE,128,1.4,7.4,75,0.00,,,-99.99,open2300 version1.11,2013-11-16 19:40:00,
2013-11-16 14:45:00,52.9,45.2,29.83,ESE,122,0.8,3.4,75,0.00,,,-99.99,open2300 version1.11,2013-11-16 19:45:00,
2013-11-16 14:50:00,52.9,45.2,29.83,SE,130,1.6,7.2,75,0.00,,,-99.99,open2300 version1.11,2013-11-16 19:50:00,
2013-11-16 14:55:00,52.9,45.2,29.83,SSE,150,1.8,6.5,75,0.00,,,-99.99,open2300 version1.11,2013-11-16 19:55:00,
2013-11-16 15:00:00,52.9,45.2,29.83,SE,130,2.0,6.7,75,0.00,,,-99.99,open2300 version1.11,2013-11-16 20:00:00,
2013-11-16 15:05:00,52.9,45.2,29.83,ESE,121,1.4,4.5,75,0.00,,,-99.99,open2300 version1.11,2013-11-16 20:05:00,
2013-11-16 15:15:00,52.9,45.2,29.83,SE,144,1.4,6.5,75,0.00,,,-99.99,open2300 version1.11,2013-11-16 20:15:00,
2013-11-16 15:20:00,52.9,45.2,29.83,ESE,108,0.2,2.2,75,0.00,,,-99.99,open2300 version1.11,2013-11-16 20:20:00,
2013-11-16 15:25:00,53.1,45.3,29.82,ESE,119,1.8,6.7,75,0.00,,,-99.99,open2300 version1.11,2013-11-16 20:25:00,
2013-11-16 15:30:00,53.2,45.5,29.82,SE,146,1.6,7.4,75,0.00,,,-99.99,open2300 version1.11,2013-11-16 20:30:00,
2013-11-16 15:35:00,53.2,45.5,29.83,SE,132,1.0,5.1,75,0.00,,,-99.99,open2300 version1.11,2013-11-16 20:35:00,
2013-11-16 15:40:00,53.2,45.5,29.82,SE,127,1.2,6.3,75,0.00,,,-99.99,open2300 version1.11,2013-11-16 20:40:00,
2013-11-16 15:45:00,53.4,45.7,29.82,SE,135,0.7,7.4,75,0.00,,,-99.99,open2300 version1.11,2013-11-16 20:45:00,
2013-11-16 15:50:00,53.4,45.7,29.82,SSE,150,0.7,4.2,75,0.00,,,-99.99,open2300 version1.11,2013-11-16 20:50:00,
2013-11-16 15:55:00,53.6,45.9,29.82,ESE,112,0.9,6.9,75,0.00,,,-99.99,open2300 version1.11,2013-11-16 20:55:00,
2013-11-16 16:00:00,53.6,45.9,29.82,ESE,123,2.3,6.9,75,0.00,,,-99.99,open2300 version1.11,2013-11-16 21:00:00,
2013-11-16 16:05:00,53.8,46.0,29.82,SE,128,2.6,7.8,75,0.00,,,-99.99,open2300 version1.11,2013-11-16 21:05:00,
2013-11-16 16:15:00,53.8,46.0,29.82,SE,128,1.4,6.5,75,0.00,,,-99.99,open2300 version1.11,2013-11-16 21:15:00,
2013-11-16 16:20:00,53.8,46.0,29.82,SE,140,2.8,7.8,75,0.00,,,-99.99,open2300 version1.11,2013-11-16 21:20:00,
2013-11-16 16:25:00,53.4,45.7,29.82,SE,136,1.2,5.1,75,0.00,,,-99.99,open2300 version1.11,2013-11-16 21:25:00,
2013-11-16 16:30:00,53.4,45.7,29.81,SE,137,1.6,6.5,75,0.00,,,-99.99,open2300 version1.11,2013-11-16 21:30:00,
2013-11-16 16:35:00,53.4,45.7,29.82,SE,144,2.3,9.8,75,0.00,,,-99.99,open2300 version1.11,2013-11-16 21:35:00,
2013-11-16 16:40:00,53.2,45.9,29.81,SE,131,1.6,7.6,76,0.00,,,-99.99,open2300 version1.11,2013-11-16 21:40:00,
2013-11-16 16:45:00,53.1,45.7,29.81,SE,138,2.4,10.1,76,0.00,,,-99.99,open2300 version1.11,2013-11-16 21:45:00,
2013-11-16 16:50:00,52.9,45.5,29.81,SE,137,1.9,5.8,76,0.00,,,-99.99,open2300 version1.11,2013-11-16 21:50:00,
2013-11-16 17:00:00,52.9,45.5,29.81,SE,127,0.6,3.4,76,0.00,,,-99.99,open2300 version1.11,2013-11-16 22:00:00,
2013-11-16 17:05:00,52.5,45.2,29.81,SE,137,0.4,4.0,76,0.00,,,-99.99,open2300 version1.11,2013-11-16 22:05:00,
2013-11-16 17:15:00,52.3,45.4,29.81,SE,135,2.1,8.7,77,0.00,,,-99.99,open2300 version1.11,2013-11-16 22:15:00,
2013-11-16 17:20:00,52.3,45.4,29.81,SE,131,1.6,6.3,77,0.00,,,-99.99,open2300 version1.11,2013-11-16 22:20:00,
2013-11-16 17:25:00,52.3,45.4,29.81,SE,124,1.8,6.5,77,0.00,,,-99.99,open2300 version1.11,2013-11-16 22:25:00,
2013-11-16 17:30:00,52.3,45.4,29.81,SE,136,1.4,5.1,77,0.00,,,-99.99,open2300 version1.11,2013-11-16 22:30:00,
2013-11-16 17:35:00,52.3,45.7,29.81,SE,130,1.5,6.9,78,0.00,,,-99.99,open2300 version1.11,2013-11-16 22:35:00,
2013-11-16 17:40:00,52.2,45.5,29.81,SE,129,1.0,5.4,78,0.00,,,-99.99,open2300 version1.11,2013-11-16 22:40:00,
2013-11-16 17:50:00,52.2,45.5,29.81,ESE,122,1.9,7.4,78,0.00,,,-99.99,open2300 version1.11,2013-11-16 22:50:00,
2013-11-16 17:55:00,52.2,45.5,29.81,SE,139,1.8,6.5,78,0.00,,,-99.99,open2300 version1.11,2013-11-16 22:55:00,
2013-11-16 18:05:00,52.2,45.5,29.80,East,101,0.4,2.7,78,0.00,,,-99.99,open2300 version1.11,2013-11-16 23:05:00,
2013-11-16 18:10:00,52.3,45.7,29.80,ESE,116,1.5,6.5,78,0.00,,,-99.99,open2300 version1.11,2013-11-16 23:10:00,
2013-11-16 18:20:00,52.3,45.7,29.80,ESE,112,2.6,6.9,78,0.00,,,-99.99,open2300 version1.11,2013-11-16 23:20:00,
2013-11-16 18:25:00,52.3,45.7,29.80,SE,135,2.3,8.7,78,0.00,,,-99.99,open2300 version1.11,2013-11-16 23:25:00,
2013-11-16 18:30:00,52.3,45.7,29.80,SE,126,1.9,9.2,78,0.00,,,-99.99,open2300 version1.11,2013-11-16 23:30:00,
2013-11-16 18:35:00,52.3,45.7,29.80,ESE,102,0.7,3.4,78,0.00,,,-99.99,open2300 version1.11,2013-11-16 23:35:00,
2013-11-16 18:45:00,52.2,45.9,29.80,SSE,152,2.9,12.8,79,0.00,,,-99.99,open2300 version1.11,2013-11-16 23:45:00,
2013-11-16 18:50:00,52.2,45.9,29.80,East,98,1.1,9.2,79,0.00,,,-99.99,open2300 version1.11,2013-11-16 23:50:00,
2013-11-16 18:55:00,52.0,45.7,29.80,ESE,121,1.5,8.1,79,0.00,,,-99.99,open2300 version1.11,2013-11-16 23:55:00,
2013-11-16 19:00:00,52.0,45.7,29.80,ESE,119,1.9,6.0,79,0.00,,,-99.99,open2300 version1.11,2013-11-17 00:00:00,
2013-11-16 19:05:00,52.0,45.7,29.79,SE,140,1.9,6.5,79,0.00,,,-99.99,open2300 version1.11,2013-11-17 00:05:00,
2013-11-16 19:15:00,52.0,45.7,29.79,ESE,104,1.9,6.3,79,0.00,,,-99.99,open2300 version1.11,2013-11-17 00:15:00,
2013-11-16 19:20:00,52.0,45.7,29.79,ESE,122,3.0,6.7,79,0.00,,,-99.99,open2300 version1.11,2013-11-17 00:20:00,
2013-11-16 19:25:00,52.0,46.0,29.79,ESE,120,2.0,9.6,80,0.00,,,-99.99,open2300 version1.11,2013-11-17 00:25:00,
2013-11-16 19:30:00,52.0,46.0,29.79,SE,130,3.2,13.0,80,0.00,,,-99.99,open2300 version1.11,2013-11-17 00:30:00,
2013-11-16 19:35:00,52.0,46.0,29.78,ESE,119,1.6,6.5,80,0.00,,,-99.99,open2300 version1.11,2013-11-17 00:35:00,
2013-11-16 19:40:00,52.0,46.0,29.78,ESE,112,1.4,7.2,80,0.00,,,-99.99,open2300 version1.11,2013-11-17 00:40:00,
2013-11-16 19:45:00,52.0,46.0,29.78,SE,143,2.2,9.6,80,0.00,,,-99.99,open2300 version1.11,2013-11-17 00:45:00,
2013-11-16 19:50:00,52.0,46.4,29.78,SE,136,2.7,10.5,81,0.00,,,-99.99,open2300 version1.11,2013-11-17 00:50:00,
2013-11-16 19:55:00,52.0,46.4,29.78,East,101,1.0,5.8,81,0.00,,,-99.99,open2300 version1.11,2013-11-17 00:55:00,
2013-11-16 20:00:00,52.0,46.4,29.77,SSE,159,2.5,15.4,81,0.00,,,-99.99,open2300 version1.11,2013-11-17 01:00:00,
2013-11-16 20:05:00,52.0,46.4,29.77,South,175,2.7,11.2,81,0.00,,,-99.99,open2300 version1.11,2013-11-17 01:05:00,
2013-11-16 20:15:00,52.2,46.5,29.77,NNW,334,1.1,6.3,81,0.00,,,-99.99,open2300 version1.11,2013-11-17 01:15:00,
2013-11-16 20:20:00,52.2,46.5,29.77,SSE,158,1.9,8.3,81,0.00,,,-99.99,open2300 version1.11,2013-11-17 01:20:00,
2013-11-16 20:30:00,52.3,46.7,29.77,SE,135,1.9,7.8,81,0.00,,,-99.99,open2300 version1.11,2013-11-17 01:30:00,
2013-11-16 20:35:00,52.3,46.7,29.77,SSW,207,1.3,6.0,81,0.00,,,-99.99,open2300 version1.11,2013-11-17 01:35:00,
2013-11-16 20:40:00,52.3,46.7,29.77,ENE,65,1.2,5.8,81,0.00,,,-99.99,open2300 version1.11,2013-11-17 01:40:00,
2013-11-16 20:50:00,52.5,46.9,29.76,ESE,120,2.9,10.7,81,0.00,,,-99.99,open2300 version1.11,2013-11-17 01:50:00,
2013-11-16 20:55:00,52.5,46.9,29.76,SE,142,1.8,8.1,81,0.00,,,-99.99,open2300 version1.11,2013-11-17 01:55:00,
2013-11-16 21:05:00,52.7,47.1,29.76,ESE,119,1.0,6.3,81,0.00,,,-99.99,open2300 version1.11,2013-11-17 02:05:00,
2013-11-16 21:15:00,52.7,47.4,29.76,SE,144,3.2,14.5,82,0.00,,,-99.99,open2300 version1.11,2013-11-17 02:15:00,
2013-11-16 21:25:00,52.9,47.5,29.75,WNW,284,0.9,6.7,82,0.00,,,-99.99,open2300 version1.11,2013-11-17 02:25:00,
2013-11-16 21:30:00,52.9,47.5,29.75,ESE,112,0.7,6.3,82,0.00,,,-99.99,open2300 version1.11,2013-11-17 02:30:00,
2013-11-16 21:35:00,52.9,47.5,29.75,SE,144,1.5,6.9,82,0.00,,,-99.99,open2300 version1.11,2013-11-17 02:35:00,
2013-11-16 21:45:00,53.1,47.7,29.74,South,178,1.6,7.6,82,0.00,,,-99.99,open2300 version1.11,2013-11-17 02:45:00,
2013-11-16 21:50:00,53.2,47.9,29.74,ESE,118,1.7,9.4,82,0.00,,,-99.99,open2300 version1.11,2013-11-17 02:50:00,
2013-11-16 21:55:00,53.2,47.9,29.74,South,169,1.7,11.9,82,0.00,,,-99.99,open2300 version1.11,2013-11-17 02:55:00,
2013-11-16 22:00:00,53.4,48.1,29.73,ESE,108,1.4,7.8,82,0.00,,,-99.99,open2300 version1.11,2013-11-17 03:00:00,
2013-11-16 22:05:00,53.4,48.1,29.73,SE,131,1.9,8.7,82,0.00,,,-99.99,open2300 version1.11,2013-11-17 03:05:00,
2013-11-16 22:10:00,53.4,48.1,29.73,SE,124,2.8,10.1,82,0.00,,,-99.99,open2300 version1.11,2013-11-17 03:10:00,
2013-11-16 22:15:00,53.6,48.3,29.73,WSW,256,1.1,5.1,82,0.00,,,-99.99,open2300 version1.11,2013-11-17 03:15:00,
2013-11-16 22:25:00,53.8,48.4,29.72,SSE,160,1.3,6.5,82,0.00,,,-99.99,open2300 version1.11,2013-11-17 03:25:00,
2013-11-16 22:30:00,53.8,48.4,29.72,SSE,166,1.7,7.2,82,0.00,,,-99.99,open2300 version1.11,2013-11-17 03:30:00,
2013-11-16 22:35:00,54.0,48.6,29.72,ESE,120,0.6,5.1,82,0.00,,,-99.99,open2300 version1.11,2013-11-17 03:35:00,
2013-11-16 22:45:00,54.0,48.6,29.71,South,170,1.1,8.3,82,0.00,,,-99.99,open2300 version1.11,2013-11-17 03:45:00,
2013-11-16 22:50:00,54.1,48.8,29.71,SSE,162,1.7,6.3,82,0.00,,,-99.99,open2300 version1.11,2013-11-17 03:50:00,
2013-11-16 22:55:00,54.1,48.8,29.71,West,278,0.5,2.9,82,0.00,,,-99.99,open2300 version1.11,2013-11-17 03:55:00,
2013-11-16 23:00:00,54.1,48.8,29.71,South,191,0.9,5.6,82,0.00,,,-99.99,open2300 version1.11,2013-11-17 04:00:00,
2013-11-16 23:05:00,54.3,48.9,29.71,SSE,147,2.8,9.8,82,0.00,,,-99.99,open2300 version1.11,2013-11-17 04:05:00,
2013-11-16 23:10:00,54.3,49.2,29.71,West,275,2.1,12.5,83,0.00,,,-99.99,open2300 version1.11,2013-11-17 04:10:00,
2013-11-16 23:15:00,54.5,49.4,29.71,WSW,253,2.3,10.1,83,0.00,,,-99.99,open2300 version1.11,2013-11-17 04:15:00,
2013-11-16 23:20:00,54.7,49.6,29.72,WSW,240,2.8,10.5,83,0.00,,,-99.99,open2300 version1.11,2013-11-17 04:20:00,
2013-11-16 23:25:00,54.9,49.8,29.72,WSW,246,2.1,6.7,83,0.00,,,-99.99,open2300 version1.11,2013-11-17 04:25:00,
2013-11-16 23:35:00,55.0,49.6,29.72,West,264,2.5,9.6,82,0.00,,,-99.99,open2300 version1.11,2013-11-17 04:35:00,
2013-11-16 23:45:00,55.2,50.1,29.71,West,267,0.7,4.2,83,0.00,,,-99.99,open2300 version1.11,2013-11-17 04:45:00,
2013-11-16 23:50:00,55.0,49.9,29.70,WSW,253,1.0,6.5,83,0.00,,,-99.99,open2300 version1.11,2013-11-17 04:50:00,